Regional Weather Roundup
Issued by NWS Newport/Morehead, NC

Current Version | Previous Version | Graphics & Text | Print | Product List | Glossary Off
Versions: 1 2 3 4 5 6 7 8 9 10 11 12 13 14 15 16 17 18 19 20 21 22 23 24 25 26 27 28 29 30 31 32 33 34 35 36 37 38 39 40 41 42 43 44 45 46 47 48 49 50

000
ASUS42 KMHX 290927
RWRMHX
WEATHER ROUNDUP FOR EASTERN NORTH CAROLINA
NATIONAL WEATHER SERVICE NEWPORT/MOREHEAD CITY NC
500 AM EDT SUN MAR 29 2015

NOTE: "FAIR" INDICATES FEW OR NO CLOUDS BELOW 12,000 FEET
WITH NO SIGNIFICANT WEATHER AND/OR OBSTRUCTIONS TO VISIBILITY

NCZ015>017-031-032-045>047-102-103-291000-
NORTH COAST

CITY           SKY/WX    TMP DP  RH WIND       PRES   REMARKS
EDENTON        CLEAR     28  18  65 N3        30.31R
ELIZABETH CITY CLEAR     26  14  60 W7        30.30R
KITTY HAWK     SUNNY     32   8  36 NW9G17    30.26R
MANTEO         CLEAR     32  11  41 N15G23    30.29R

$$

NCZ045>047-081-094-103-104-291000-
CENTRAL COAST

CITY           SKY/WX    TMP DP  RH WIND       PRES   REMARKS
FRISCO         CLEAR     33  12  41 N10G24    30.27R
SWANQUARTER      N/A     27 N/A N/A N2        30.27R

$$

NCZ095-097-098-100-101-291000-
SOUTHERN COAST

CITY           SKY/WX    TMP DP  RH WIND       PRES   REMARKS
BEAUFORT       CLEAR     29  19  66 N7        30.30R
CEDAR ISLAND     N/A     36 N/A N/A NW17G30   30.33R
JACKSONVILLE   CLEAR     29  19  66 N6        30.32R
PINEY ISLAND   SUNNY    N/A N/A N/A N17G24    30.28R
WILMINGTON     CLEAR     31  18  58 N6        30.32R


$$

NCZ011>013-027>030-043-044-078>080-089-090>093-098-291000-
COASTAL PLAIN

CITY           SKY/WX    TMP DP  RH WIND       PRES   REMARKS
AHOSKIE        CLEAR     26  14  59 CALM      30.32R
CLINTON        CLEAR     28  21  74 CALM      30.35R
ELIZABETHTOWN  CLEAR     29  20  67 CALM      30.33R
GOLDSBORO      CLEAR     29  23  77 NW3       30.31R
GREENVILLE     CLEAR     27  23  86 CALM      30.33R
HAVELOCK       CLEAR     32  16  51 N12       30.32R
KENANSVILLE    CLEAR     30  14  50 CALM      30.36R
KINSTON        CLEAR     27  21  78 NW3       30.33R
NEW BERN       CLEAR     30  15  53 N7        30.32R
RICHLANDS      CLEAR     27  18  69 CALM      30.33R
ROCKY MOUNT    CLEAR     28  14  55 NW7       30.33R
WASHINGTON     CLEAR     28  15  60 NW3       30.32R
WHITEVILLE     CLEAR     32  18  55 CALM      30.33R

$$

AMZ130-135-150-152-154-156-158-170-250-252-270-ANZ085-086-088-633-658-670-291000-
MARINE OBSERVATIONS

STATION/POSITION TIME  TEMP    WIND        PRES    WAVE   SWELL
                       AIR SEA DIR/SP/G            HT/PER HT/PER
                 (UTC) (F)     (DEG/KT/KT) (MB)    (FT/S) (FT/S)
CHESAPEAKE LIGHT 0900   32     330/ 23/ 26 1025.1
64 E VA BEACH    0850   35 55  330/ 21/ 25 1022.7    6/ 6   2/ 9
DUCK             NOT AVBL
2 E DUCK         0911      42                N/A     5/ 6
10 NE DUCK       NOT AVBL
OREGON INLET     NOT AVBL
HATTERAS CG      NOT AVBL
CAPE LOOKOUT     0900   35     360/ 19/ 23 1025.2
BEAUFORT LAB     NOT AVBL
27 SE WRIGHTSVLE 0800   41 65   30/ 21/ 25 1024.9
5 SE WRIGHTSVLE  0800   39 56   20/ 21/ 25 1025.1
225 S CAPE HAT   0850   55 68  330/ 21/ 25 1020.3    9/ 8   3/11
41 SE CHARLESTON 0850   51 68   20/ 21/ 27 1023.5    4/ 4   2/ 9

$$


USA.gov is the U.S. government's official web portal to all federal, state and local government web resources and services.